Weather History for Tulsa, OK

Change the Weather History Date:

Sunday, January 12, 2014

  Actual Average Record
Temperature  
Mean Temperature 55 °F 37 °F  
Max Temperature 72 °F 48 °F 74 °F (2000)
Min Temperature 38 °F 27 °F -13 °F (1918)
Degree Days  
Heating Degree Days 10 28  
Month to date heating degree days 382 336  
Since 1 July heating degree days 1996 1764  
Growing Degree Days 7 (Base 50)    
Moisture  
Dew Point 29 °F    
Average Humidity 42    
Maximum Humidity 64    
Minimum Humidity 19    
Precipitation  
Precipitation 0.00 in 0.05 in 2.10 in (1916)
Month to date precipitation 0.13 0.63  
Year to date precipitation 0.13 0.63  
Sea Level Pressure  
Sea Level Pressure 29.72 in    
Wind  
Wind Speed 20 mph (South)    
Max Wind Speed 37 mph    
Max Gust Speed 49 mph    
Visibility 10 miles    
Events      
T = Trace of Precipitation, MM = Missing Value Source: NWS Daily Summary

Daily Weather History Graph

Daily Weather History Graph

Search for Another Location

Airport:

Trip Planner

Search our weather history database for the weather conditions in past years. The results will help you decide how hot, cold, wet, or windy it might be!

Date:

Astronomy

Jan. 12, 2014 Rise Set
Actual Time 7:34 AM CST 5:29 PM CST
Civil Twilight 7:06 AM CST 5:57 PM CST
Nautical Twilight 6:34 AM CST 6:29 PM CST
Astronomical Twilight 6:03 AM CST 7:00 PM CST
Moon 2:57 PM CST (1/12) 4:35 AM CST (1/12)
Length of Visible Light 10h 51m
Length of Day
9h 54m
Waxing Gibbous, 90% of the Moon is Illuminated
Jan 12
Waxing Gibbous
Jan 15
Full
Jan 23
Last Quarter
Jan 30
New
Feb 6
First Quarter

Hourly Weather History & Observations

Time (CST) Temp. Windchill Dew Point Humidity Pressure Visibility Wind Dir Wind Speed Gust Speed Precip Events Conditions
12:53 AM 41.0 °F 35.2 °F 26.1 °F 55% 29.93 in 10.0 mi SSE 9.2 mph - N/A   Clear
1:53 AM 39.9 °F 33.4 °F 26.1 °F 58% 29.91 in 10.0 mi SE 10.4 mph - N/A   Clear
2:53 AM 37.9 °F 32.1 °F 26.1 °F 62% 29.91 in 10.0 mi SSE 8.1 mph - N/A   Clear
3:53 AM 39.9 °F 32.9 °F 25.0 °F 55% 29.89 in 10.0 mi SSE 11.5 mph - N/A   Clear
4:53 AM 39.0 °F 32.8 °F 25.0 °F 57% 29.87 in 10.0 mi SSE 9.2 mph - N/A   Clear
5:53 AM 42.1 °F 33.9 °F 24.1 °F 49% 29.85 in 10.0 mi SSE 17.3 mph - N/A   Clear
6:53 AM 44.1 °F 36.5 °F 24.1 °F 45% 29.84 in 10.0 mi SSE 17.3 mph - N/A   Clear
7:53 AM 46.0 °F 39.0 °F 24.1 °F 42% 29.82 in 10.0 mi South 17.3 mph - N/A   Partly Cloudy
8:53 AM 50.0 °F - 26.1 °F 39% 29.81 in 10.0 mi South 20.7 mph 28.8 mph N/A   Partly Cloudy
9:53 AM 54.0 °F - 27.0 °F 35% 29.79 in 10.0 mi South 17.3 mph 27.6 mph N/A   Partly Cloudy
10:53 AM 63.0 °F - 27.0 °F 26% 29.75 in 10.0 mi SSW 39.1 mph 46.0 mph N/A   Clear
11:53 AM 64.9 °F - 27.0 °F 24% 29.70 in 10.0 mi South 32.2 mph 41.4 mph N/A   Partly Cloudy
12:53 PM 68.0 °F - 27.0 °F 21% 29.63 in 10.0 mi South 27.6 mph 39.1 mph N/A   Partly Cloudy
1:53 PM 71.1 °F - 27.0 °F 19% 29.60 in 10.0 mi SSW 25.3 mph 36.8 mph N/A   Partly Cloudy
2:53 PM 72.0 °F - 27.0 °F 19% 29.58 in 10.0 mi South 27.6 mph 38.0 mph N/A   Partly Cloudy
3:53 PM 70.0 °F - 27.0 °F 20% 29.57 in 10.0 mi South 26.5 mph 36.8 mph N/A   Partly Cloudy
4:53 PM 69.1 °F - 27.0 °F 21% 29.58 in 10.0 mi South 25.3 mph 35.7 mph N/A   Scattered Clouds
5:53 PM 66.0 °F - 30.0 °F 26% 29.59 in 10.0 mi South 24.2 mph 34.5 mph N/A   Scattered Clouds
6:53 PM 64.0 °F - 30.9 °F 29% 29.60 in 10.0 mi South 20.7 mph 29.9 mph N/A   Scattered Clouds
7:53 PM 62.1 °F - 33.1 °F 34% 29.59 in 10.0 mi South 21.9 mph 32.2 mph N/A   Scattered Clouds
8:53 PM 61.0 °F - 36.0 °F 39% 29.58 in 10.0 mi South 26.5 mph 34.5 mph N/A   Mostly Cloudy
9:53 PM 61.0 °F - 39.0 °F 44% 29.57 in 10.0 mi South 20.7 mph 31.1 mph N/A   Mostly Cloudy
10:53 PM 60.1 °F - 42.1 °F 51% 29.61 in 10.0 mi SSW 13.8 mph 28.8 mph N/A   Mostly Cloudy
11:53 PM 55.0 °F - 35.1 °F 47% 29.66 in 10.0 mi WNW 20.7 mph 27.6 mph N/A   Mostly Cloudy